SAS2831 EKCH-LDSP

Flight info

Callsign SAS2831
Flight time N/A
Altitude 33000
Route SALLO M44 KOGIM DCT LUROS DCT HDO DCT PISAM DCT PETOV DCT NUPSO
Aircraft MD82/M-SDFGHRWY/C

Departure

Time 2026-04-30 11:09
Airport Copenhagen Kastrup Airport (EKCH)

Arrival

Time N/A
Airport Split Saint Jerome Airport (LDSP)
Time Latitude Longitude Altitude Speed Heading
2026-04-30 10:43 55.62714 12.64446 25 ft 0 kts 102°
2026-04-30 11:00 55.62717 12.64427 26 ft 4 kts 102°
2026-04-30 11:00 55.62721 12.64390 24 ft 4 kts 95°
2026-04-30 11:01 55.62717 12.64355 25 ft 4 kts 46°
2026-04-30 11:01 55.62696 12.64332 24 ft 4 kts 21°
2026-04-30 11:01 55.62673 12.64317 25 ft 4 kts 21°
2026-04-30 11:01 55.62653 12.64303 24 ft 4 kts 22°
2026-04-30 11:02 55.62629 12.64283 25 ft 4 kts 32°
2026-04-30 11:02 55.62609 12.64257 24 ft 4 kts 50°
2026-04-30 11:02 55.62600 12.64221 24 ft 4 kts 92°
2026-04-30 11:02 55.62607 12.64184 24 ft 3 kts 123°
2026-04-30 11:03 55.62622 12.64144 24 ft 4 kts 123°
2026-04-30 11:03 55.62635 12.64109 24 ft 1 kts 123°
2026-04-30 11:03 55.62635 12.64108 24 ft 0 kts 123°
2026-04-30 11:05 55.62635 12.64109 24 ft 0 kts 123°
2026-04-30 11:06 55.62631 12.64119 24 ft 2 kts 123°
2026-04-30 11:06 55.62605 12.64185 24 ft 8 kts 135°
2026-04-30 11:06 55.62540 12.64219 24 ft 13 kts 159°
2026-04-30 11:06 55.62472 12.64336 25 ft 15 kts 126°
2026-04-30 11:07 55.62398 12.64446 26 ft 15 kts 174°
2026-04-30 11:07 55.62287 12.64403 26 ft 20 kts 197°
2026-04-30 11:07 55.62137 12.64289 25 ft 26 kts 206°
2026-04-30 11:07 55.61980 12.64156 25 ft 25 kts 206°
2026-04-30 11:08 55.61818 12.64072 25 ft 24 kts 177°
2026-04-30 11:08 55.61677 12.64084 27 ft 23 kts 178°
2026-04-30 11:08 55.61541 12.63942 27 ft 28 kts 221°
2026-04-30 11:08 55.61323 12.63599 27 ft 67 kts 221°
2026-04-30 11:09 55.60846 12.62864 25 ft 126 kts 222°
2026-04-30 11:09 55.60045 12.61645 96 ft 169 kts 221°
2026-04-30 11:09 55.59166 12.60403 873 ft 164 kts 219°
2026-04-30 11:09 55.58247 12.59153 1534 ft 167 kts 223°
2026-04-30 11:10 55.57692 12.58318 2042 ft 158 kts 225°
2026-04-30 11:10 55.56931 12.57122 2402 ft 170 kts 226°
2026-04-30 11:10 55.55863 12.55871 2667 ft 200 kts 207°
2026-04-30 11:10 55.54482 12.54890 3016 ft 224 kts 204°
2026-04-30 11:11 55.52937 12.53877 3353 ft 248 kts 204°
2026-04-30 11:11 55.51284 12.52808 3794 ft 263 kts 202°
2026-04-30 11:11 55.49525 12.51703 4338 ft 272 kts 202°
2026-04-30 11:11 55.47721 12.50599 5026 ft 276 kts 201°
2026-04-30 11:12 55.45853 12.49563 5698 ft 282 kts 191°
2026-04-30 11:12 55.43892 12.49715 6342 ft 286 kts 160°
2026-04-30 11:12 55.42215 12.51425 7021 ft 284 kts 136°
2026-04-30 11:12 55.40770 12.53899 7604 ft 289 kts 131°
2026-04-30 11:13 55.39369 12.56443 8268 ft 290 kts 131°
2026-04-30 11:13 55.37968 12.59019 8903 ft 293 kts 130°
2026-04-30 11:13 55.36587 12.61588 9501 ft 294 kts 130°
2026-04-30 11:13 55.35155 12.64249 10079 ft 298 kts 129°